Time,TemperatureF,DewpointF,PressureIn,WindDirection,WindDirectionDegrees,WindSpeedMPH,WindSpeedGustMPH,Humidity,HourlyPrecipIn,Conditions,Clouds,dailyrainin,SoftwareType,DateUTC
2013-04-24 00:02:00,45.0,40.0,30.26,North,5,0.0,-999.0,82,-99.99,,,-99.99,,2013-04-24 07:02:00,
2013-04-24 00:11:00,45.0,40.0,30.26,North,5,0.0,-999.0,82,-99.99,,,-99.99,,2013-04-24 07:11:00,
2013-04-24 00:21:00,45.0,40.0,30.26,North,5,0.0,-999.0,82,-99.99,,,-99.99,,2013-04-24 07:21:00,
2013-04-24 00:31:00,44.0,39.0,30.27,North,5,0.0,-999.0,84,-99.99,,,-99.99,,2013-04-24 07:31:00,
2013-04-24 00:41:00,44.0,39.0,30.27,North,5,0.0,-999.0,84,-99.99,,,-99.99,,2013-04-24 07:41:00,
2013-04-24 00:51:00,44.0,40.0,30.27,North,5,0.0,-999.0,85,-99.99,,,-99.99,,2013-04-24 07:51:00,
2013-04-24 01:01:00,44.0,40.0,30.27,North,5,0.0,-999.0,85,-99.99,,,-99.99,,2013-04-24 08:01:00,
2013-04-24 01:11:00,44.0,40.0,30.27,North,5,0.0,-999.0,85,-99.99,,,-99.99,,2013-04-24 08:11:00,
2013-04-24 01:21:00,43.0,39.0,30.27,North,5,0.0,-999.0,86,-99.99,,,-99.99,,2013-04-24 08:21:00,
2013-04-24 01:33:00,43.0,39.0,30.27,North,5,0.0,-999.0,87,-99.99,,,-99.99,,2013-04-24 08:33:00,
2013-04-24 01:42:00,43.0,39.0,30.27,North,5,0.0,-999.0,87,-99.99,,,-99.99,,2013-04-24 08:42:00,
2013-04-24 01:51:00,43.0,39.0,30.27,North,5,0.0,-999.0,87,-99.99,,,-99.99,,2013-04-24 08:51:00,
2013-04-24 02:01:00,43.0,40.0,30.27,North,5,0.0,-999.0,88,-99.99,,,-99.99,,2013-04-24 09:01:00,
2013-04-24 02:11:00,43.0,40.0,30.27,North,5,0.0,-999.0,88,-99.99,,,-99.99,,2013-04-24 09:11:00,
2013-04-24 02:21:00,43.0,39.0,30.27,North,5,0.0,-999.0,87,-99.99,,,-99.99,,2013-04-24 09:21:00,
2013-04-24 02:32:00,43.0,40.0,30.27,North,5,0.0,-999.0,88,-99.99,,,-99.99,,2013-04-24 09:32:00,
2013-04-24 02:42:00,43.0,40.0,30.27,North,5,0.0,-999.0,88,-99.99,,,-99.99,,2013-04-24 09:42:00,
2013-04-24 02:53:00,42.0,39.0,30.28,North,5,0.0,-999.0,89,-99.99,,,-99.99,,2013-04-24 09:53:00,
2013-04-24 03:02:00,42.0,39.0,30.28,North,360,0.0,-999.0,89,-99.99,,,-99.99,,2013-04-24 10:02:00,
2013-04-24 03:12:00,42.0,39.0,30.28,North,360,0.0,-999.0,89,-99.99,,,-99.99,,2013-04-24 10:12:00,
2013-04-24 03:22:00,42.0,39.0,30.28,North,360,0.0,-999.0,89,-99.99,,,-99.99,,2013-04-24 10:22:00,
2013-04-24 03:32:00,42.0,39.0,30.28,North,360,0.0,-999.0,90,-99.99,,,-99.99,,2013-04-24 10:32:00,
2013-04-24 03:42:00,42.0,39.0,30.28,North,360,0.0,-999.0,90,-99.99,,,-99.99,,2013-04-24 10:42:00,
2013-04-24 03:52:00,41.0,38.0,30.28,North,360,0.0,-999.0,90,-99.99,,,-99.99,,2013-04-24 10:52:00,
2013-04-24 04:02:00,41.0,38.0,30.27,North,5,0.0,-999.0,90,-99.99,,,-99.99,,2013-04-24 11:02:00,
2013-04-24 04:11:00,41.0,38.0,30.27,North,5,0.0,-999.0,90,-99.99,,,-99.99,,2013-04-24 11:11:00,
2013-04-24 04:21:00,41.0,39.0,30.29,North,360,0.0,-999.0,91,-99.99,,,-99.99,,2013-04-24 11:21:00,
2013-04-24 04:32:00,41.0,38.0,30.28,North,5,0.0,-999.0,90,-99.99,,,-99.99,,2013-04-24 11:32:00,
2013-04-24 04:42:00,41.0,38.0,30.28,North,5,0.0,-999.0,90,-99.99,,,-99.99,,2013-04-24 11:42:00,
2013-04-24 04:52:00,40.0,38.0,30.28,North,5,0.0,-999.0,91,-99.99,,,-99.99,,2013-04-24 11:52:00,
2013-04-24 05:01:00,40.0,38.0,30.28,North,5,0.0,-999.0,92,-99.99,,,-99.99,,2013-04-24 12:01:00,
2013-04-24 05:11:00,40.0,38.0,30.28,North,5,0.0,-999.0,92,-99.99,,,-99.99,,2013-04-24 12:11:00,
2013-04-24 05:22:00,40.0,38.0,30.28,North,5,0.0,-999.0,92,-99.99,,,-99.99,,2013-04-24 12:22:00,
2013-04-24 05:32:00,39.0,37.0,30.29,North,360,0.0,-999.0,92,-99.99,,,-99.99,,2013-04-24 12:32:00,
2013-04-24 05:42:00,39.0,37.0,30.29,North,360,0.0,-999.0,92,-99.99,,,-99.99,,2013-04-24 12:42:00,
2013-04-24 05:51:00,39.0,37.0,30.29,North,5,0.0,-999.0,93,-99.99,,,-99.99,,2013-04-24 12:51:00,
2013-04-24 06:01:00,39.0,37.0,30.29,North,5,0.0,-999.0,93,-99.99,,,-99.99,,2013-04-24 13:01:00,
2013-04-24 06:12:00,39.0,37.0,30.29,North,5,0.0,-999.0,93,-99.99,,,-99.99,,2013-04-24 13:12:00,
2013-04-24 06:22:00,39.0,37.0,30.29,North,5,0.0,-999.0,93,-99.99,,,-99.99,,2013-04-24 13:22:00,
2013-04-24 06:31:00,39.0,37.0,30.29,North,5,0.0,-999.0,93,-99.99,,,-99.99,,2013-04-24 13:31:00,
2013-04-24 06:41:00,39.0,37.0,30.29,North,5,0.0,-999.0,93,-99.99,,,-99.99,,2013-04-24 13:41:00,
2013-04-24 06:51:00,38.0,36.0,30.29,North,5,0.0,-999.0,93,-99.99,,,-99.99,,2013-04-24 13:51:00,
2013-04-24 07:01:00,38.0,36.0,30.29,North,5,0.0,-999.0,93,-99.99,,,-99.99,,2013-04-24 14:01:00,
2013-04-24 07:11:00,38.0,36.0,30.29,North,5,0.0,-999.0,93,-99.99,,,-99.99,,2013-04-24 14:11:00,
2013-04-24 07:21:00,38.0,36.0,30.29,North,5,0.0,-999.0,94,-99.99,,,-99.99,,2013-04-24 14:21:00,
2013-04-24 07:32:00,39.0,37.0,30.29,North,360,0.0,-999.0,94,-99.99,,,-99.99,,2013-04-24 14:32:00,
2013-04-24 07:41:00,39.0,37.0,30.29,North,360,0.0,-999.0,94,-99.99,,,-99.99,,2013-04-24 14:41:00,
2013-04-24 07:51:00,39.0,37.0,30.29,North,360,0.0,-999.0,94,-99.99,,,-99.99,,2013-04-24 14:51:00,
2013-04-24 08:01:00,39.0,37.0,30.29,North,5,0.0,-999.0,94,-99.99,,,-99.99,,2013-04-24 15:01:00,
2013-04-24 08:11:00,39.0,37.0,30.29,North,5,0.0,-999.0,94,-99.99,,,-99.99,,2013-04-24 15:11:00,
2013-04-24 08:21:00,40.0,38.0,30.29,North,5,0.0,-999.0,94,-99.99,,,-99.99,,2013-04-24 15:21:00,
2013-04-24 08:33:00,40.0,39.0,30.29,North,5,0.0,-999.0,95,-99.99,,,-99.99,,2013-04-24 15:33:00,
2013-04-24 08:42:00,40.0,39.0,30.29,North,5,0.0,-999.0,95,-99.99,,,-99.99,,2013-04-24 15:42:00,
2013-04-24 08:52:00,41.0,40.0,30.29,North,5,0.0,-999.0,95,-99.99,,,-99.99,,2013-04-24 15:52:00,
2013-04-24 09:03:00,42.0,41.0,30.29,North,5,0.0,-999.0,95,-99.99,,,-99.99,,2013-04-24 16:03:00,
2013-04-24 09:12:00,42.0,41.0,30.29,North,5,0.0,-999.0,95,-99.99,,,-99.99,,2013-04-24 16:12:00,
2013-04-24 09:23:00,43.0,41.0,30.28,North,360,0.0,-999.0,94,-99.99,,,-99.99,,2013-04-24 16:23:00,
2013-04-24 09:32:00,44.0,42.0,30.28,SE,126,0.0,-999.0,93,-99.99,,,-99.99,,2013-04-24 16:32:00,
2013-04-24 10:02:00,47.0,43.0,30.27,SE,130,0.0,-999.0,85,-99.99,,,-99.99,,2013-04-24 17:02:00,
2013-04-24 10:22:00,49.0,43.0,30.27,SE,130,0.0,-999.0,79,-99.99,,,-99.99,,2013-04-24 17:22:00,
2013-04-24 10:32:00,51.0,42.0,30.26,SE,130,0.0,-999.0,72,-99.99,,,-99.99,,2013-04-24 17:32:00,
2013-04-24 10:42:00,51.0,42.0,30.26,SE,130,0.0,-999.0,72,-99.99,,,-99.99,,2013-04-24 17:42:00,
2013-04-24 10:51:00,53.0,43.0,30.26,SE,129,1.0,-999.0,69,-99.99,,,-99.99,,2013-04-24 17:51:00,
2013-04-24 11:02:00,54.0,43.0,30.25,North,5,1.0,-999.0,65,-99.99,,,-99.99,,2013-04-24 18:02:00,
2013-04-24 11:12:00,54.0,43.0,30.25,North,5,1.0,-999.0,65,-99.99,,,-99.99,,2013-04-24 18:12:00,
2013-04-24 11:21:00,56.0,43.0,30.25,North,5,1.0,-999.0,62,-99.99,,,-99.99,,2013-04-24 18:21:00,
2013-04-24 11:32:00,58.0,44.0,30.25,North,355,1.0,-999.0,59,-99.99,,,-99.99,,2013-04-24 18:32:00,
2013-04-24 11:52:00,59.0,44.0,30.24,North,360,0.0,-999.0,57,-99.99,,,-99.99,,2013-04-24 18:52:00,
2013-04-24 12:01:00,61.0,44.0,30.24,North,360,0.0,-999.0,53,-99.99,,,-99.99,,2013-04-24 19:01:00,
2013-04-24 12:21:00,62.0,45.0,30.23,North,355,1.0,-999.0,54,-99.99,,,-99.99,,2013-04-24 19:21:00,
2013-04-24 12:31:00,63.0,45.0,30.23,NNW,338,1.0,-999.0,51,-99.99,,,-99.99,,2013-04-24 19:31:00,
2013-04-24 12:52:00,63.0,42.0,30.22,WNW,288,1.0,-999.0,47,-99.99,,,-99.99,,2013-04-24 19:52:00,
2013-04-24 13:01:00,64.0,44.0,30.21,WNW,293,1.0,-999.0,49,-99.99,,,-99.99,,2013-04-24 20:01:00,
2013-04-24 13:21:00,65.0,44.0,30.20,SW,220,2.0,-999.0,46,-99.99,,,-99.99,,2013-04-24 20:21:00,
2013-04-24 13:32:00,66.0,43.0,30.19,NNW,347,2.0,-999.0,43,-99.99,,,-99.99,,2013-04-24 20:32:00,
2013-04-24 13:51:00,66.0,43.0,30.18,SSE,159,2.0,-999.0,44,-99.99,,,-99.99,,2013-04-24 20:51:00,
2013-04-24 14:02:00,67.0,41.0,30.18,NNW,344,1.0,-999.0,38,-99.99,,,-99.99,,2013-04-24 21:02:00,
2013-04-24 14:21:00,67.0,41.0,30.18,WNW,299,1.0,-999.0,39,-99.99,,,-99.99,,2013-04-24 21:21:00,
2013-04-24 14:32:00,68.0,41.0,30.17,NNE,28,1.0,-999.0,37,-99.99,,,-99.99,,2013-04-24 21:32:00,
2013-04-24 14:52:00,68.0,39.0,30.17,North,10,1.0,-999.0,34,-99.99,,,-99.99,,2013-04-24 21:52:00,
2013-04-24 15:03:00,67.0,38.0,30.16,NNW,336,1.0,-999.0,34,-99.99,,,-99.99,,2013-04-24 22:03:00,
2013-04-24 15:22:00,68.0,39.0,30.15,North,355,1.0,-999.0,35,-99.99,,,-99.99,,2013-04-24 22:22:00,
2013-04-24 15:32:00,68.0,38.0,30.14,NW,315,1.0,-999.0,33,-99.99,,,-99.99,,2013-04-24 22:32:00,
2013-04-24 15:52:00,67.0,37.0,30.14,NNE,28,1.0,-999.0,33,-99.99,,,-99.99,,2013-04-24 22:52:00,
2013-04-24 16:02:00,68.0,37.0,30.13,NNE,17,0.0,-999.0,32,-99.99,,,-99.99,,2013-04-24 23:02:00,
2013-04-24 16:21:00,68.0,37.0,30.13,North,355,2.0,-999.0,32,-99.99,,,-99.99,,2013-04-24 23:21:00,
2013-04-24 16:32:00,68.0,35.0,30.12,NNE,32,2.0,-999.0,30,-99.99,,,-99.99,,2013-04-24 23:32:00,
2013-04-24 16:42:00,68.0,35.0,30.12,NNE,32,2.0,-999.0,30,-99.99,,,-99.99,,2013-04-24 23:42:00,
2013-04-24 16:51:00,68.0,35.0,30.11,NNE,30,2.0,-999.0,30,-99.99,,,-99.99,,2013-04-24 23:51:00,
2013-04-24 17:01:00,69.0,38.0,30.11,NE,41,0.0,-999.0,32,-99.99,,,-99.99,,2013-04-25 00:01:00,
2013-04-24 17:22:00,68.0,36.0,30.10,NNW,342,0.0,-999.0,31,-99.99,,,-99.99,,2013-04-25 00:22:00,
2013-04-24 17:32:00,67.0,37.0,30.09,East,99,1.0,-999.0,33,-99.99,,,-99.99,,2013-04-25 00:32:00,
2013-04-24 17:51:00,66.0,35.0,30.08,North,355,2.0,-999.0,32,-99.99,,,-99.99,,2013-04-25 00:51:00,
2013-04-24 18:01:00,66.0,38.0,30.08,North,360,1.0,-999.0,36,-99.99,,,-99.99,,2013-04-25 01:01:00,
2013-04-24 18:22:00,66.0,38.0,30.08,NNW,346,1.0,-999.0,35,-99.99,,,-99.99,,2013-04-25 01:22:00,
2013-04-24 18:32:00,66.0,39.0,30.07,NNE,32,0.0,-999.0,37,-99.99,,,-99.99,,2013-04-25 01:32:00,
2013-04-24 18:52:00,65.0,38.0,30.07,North,360,2.0,-999.0,37,-99.99,,,-99.99,,2013-04-25 01:52:00,
2013-04-24 19:01:00,64.0,38.0,30.07,North,9,1.0,-999.0,38,-99.99,,,-99.99,,2013-04-25 02:01:00,
2013-04-24 19:11:00,64.0,38.0,30.07,North,9,1.0,-999.0,38,-99.99,,,-99.99,,2013-04-25 02:11:00,
2013-04-24 19:22:00,64.0,39.0,30.07,ENE,58,2.0,-999.0,39,-99.99,,,-99.99,,2013-04-25 02:22:00,
2013-04-24 19:32:00,63.0,38.0,30.06,North,5,1.0,-999.0,40,-99.99,,,-99.99,,2013-04-25 02:32:00,
2013-04-24 19:42:00,63.0,38.0,30.06,North,5,1.0,-999.0,40,-99.99,,,-99.99,,2013-04-25 02:42:00,
2013-04-24 19:51:00,63.0,38.0,30.06,North,5,1.0,-999.0,40,-99.99,,,-99.99,,2013-04-25 02:51:00,
2013-04-24 20:02:00,62.0,39.0,30.05,North,9,0.0,-999.0,43,-99.99,,,-99.99,,2013-04-25 03:02:00,
2013-04-24 20:11:00,62.0,39.0,30.05,North,9,0.0,-999.0,43,-99.99,,,-99.99,,2013-04-25 03:11:00,
2013-04-24 20:21:00,61.0,40.0,30.05,North,9,0.0,-999.0,46,-99.99,,,-99.99,,2013-04-25 03:21:00,
2013-04-24 20:32:00,61.0,40.0,30.05,North,9,0.0,-999.0,46,-99.99,,,-99.99,,2013-04-25 03:32:00,
2013-04-24 20:42:00,61.0,40.0,30.05,North,9,0.0,-999.0,46,-99.99,,,-99.99,,2013-04-25 03:42:00,
2013-04-24 20:52:00,58.0,39.0,30.05,North,9,0.0,-999.0,50,-99.99,,,-99.99,,2013-04-25 03:52:00,
2013-04-24 21:03:00,57.0,40.0,30.04,North,9,0.0,-999.0,52,-99.99,,,-99.99,,2013-04-25 04:03:00,
2013-04-24 21:12:00,57.0,40.0,30.04,North,9,0.0,-999.0,52,-99.99,,,-99.99,,2013-04-25 04:12:00,
2013-04-24 21:22:00,56.0,39.0,30.04,North,9,0.0,-999.0,53,-99.99,,,-99.99,,2013-04-25 04:22:00,
2013-04-24 21:32:00,55.0,38.0,30.04,North,9,0.0,-999.0,53,-99.99,,,-99.99,,2013-04-25 04:32:00,
2013-04-24 21:43:00,55.0,38.0,30.04,North,9,0.0,-999.0,53,-99.99,,,-99.99,,2013-04-25 04:43:00,
2013-04-24 21:52:00,55.0,39.0,30.04,North,9,0.0,-999.0,55,-99.99,,,-99.99,,2013-04-25 04:52:00,
2013-04-24 22:02:00,54.0,39.0,30.05,North,9,0.0,-999.0,56,-99.99,,,-99.99,,2013-04-25 05:02:00,
2013-04-24 22:12:00,54.0,39.0,30.05,North,9,0.0,-999.0,56,-99.99,,,-99.99,,2013-04-25 05:12:00,
2013-04-24 22:21:00,54.0,39.0,30.04,North,9,0.0,-999.0,57,-99.99,,,-99.99,,2013-04-25 05:21:00,
2013-04-24 22:31:00,53.0,39.0,30.03,North,9,0.0,-999.0,59,-99.99,,,-99.99,,2013-04-25 05:31:00,
2013-04-24 22:42:00,53.0,39.0,30.03,North,9,0.0,-999.0,59,-99.99,,,-99.99,,2013-04-25 05:42:00,
2013-04-24 22:51:00,52.0,39.0,30.03,North,9,0.0,-999.0,60,-99.99,,,-99.99,,2013-04-25 05:51:00,
2013-04-24 23:01:00,52.0,39.0,30.04,North,9,0.0,-999.0,60,-99.99,,,-99.99,,2013-04-25 06:01:00,
2013-04-24 23:11:00,52.0,39.0,30.04,North,9,0.0,-999.0,60,-99.99,,,-99.99,,2013-04-25 06:11:00,
2013-04-24 23:22:00,51.0,38.0,30.03,North,9,0.0,-999.0,61,-99.99,,,-99.99,,2013-04-25 06:22:00,
2013-04-24 23:31:00,51.0,39.0,30.03,North,9,0.0,-999.0,63,-99.99,,,-99.99,,2013-04-25 06:31:00,
2013-04-24 23:41:00,51.0,39.0,30.03,North,9,0.0,-999.0,63,-99.99,,,-99.99,,2013-04-25 06:41:00,
2013-04-24 23:52:00,50.0,38.0,30.02,North,9,0.0,-999.0,63,-99.99,,,-99.99,,2013-04-25 06:52:00,